GPS BIIR-13

Last updated on Wed Sep 17 2025 00:02:34 GMT+0000 (Coordinated Universal Time)

1 28474U 04045A 25259.55475207 -.00000097 00000+0 00000+0 0 9991 2 28474 55.2809 335.9140 0167695 306.0644 33.1932 2.00565430152934
UTC large
Height (km)
Speed (km/s)
/
Latitude / Longitude
Inclination (degrees)
Orbital Period (minutes)
Azimuth
Elevation
Range (km)
Doppler Factor

Next 0 passes for location: London (51.5072 / 0.1276)

Sorry there are no passes over London.